Tracking 27112 objects as of 26-Mar-2023
HD Live streaming from Space Station
objects crossing your sky now

NSTAR A

Track NSTAR A now!
NSTAR A is classified as:


NORAD ID: 23651
Int'l Code: 1995-044A
Perigee: 36,025.1 km
Apogee: 36,208.9 km
Inclination: 11.8 °
Period: 1,452.6 minutes
Semi major axis: 42488 km
RCS: 15.8489 m2 (large)
Launch date: August 29, 1995
Source: Japan (JPN)
Launch site: FRENCH GUIANA (FRGUI)

Voice and TV broadcast to Japan and neighboring region.
Your satellite tracking list
Your tracking list is empty




NASA's NSSDC Master Catalog

Two Line Element Set (TLE):
1 23651U 95044A   23085.04354979 -.00000082  00000-0  00000+0 0  9998
2 23651  11.8076  29.2833 0021632 356.6283 192.0387  0.99129528100271
Source of the keplerian elements: AFSPC